This is the latest recevied weather packets stored in our database for station/object XW7RMR. If no packets are shown the sender has not sent any weather packets the latest 10 day(s).
| Time | Temp. | Humidity | Pressure | Rain* | Wind** | Luminosity | Snow |
|---|---|---|---|---|---|---|---|
| 1777816896 | 11.67° C | 96% | 1010.4 hPa | 0 mm | - | 46 W/m² | - |
| 1777816592 | 11.11° C | 97% | 1010.3 hPa | 0 mm | - | 42 W/m² | - |
| 1777816289 | 11.11° C | 98% | 1010.3 hPa | 0 mm | - | 38 W/m² | - |
| 1777815986 | 10.56° C | 98% | 1010.3 hPa | 0 mm | - | 33 W/m² | - |
| 1777815684 | 10.56° C | 99% | 1010.5 hPa | 0 mm | - | 29 W/m² | - |
| 1777815381 | 10.56° C | 99% | 1010.3 hPa | 0 mm | - | 24 W/m² | - |
| 1777815078 | 10.56° C | 99% | 1010.4 hPa | 0 mm | - | 20 W/m² | - |
| 1777814774 | 10.56° C | 99% | 1010.3 hPa | 0 mm | - | 17 W/m² | - |
| 1777814471 | 10° C | 99% | 1010.2 hPa | 0 mm | - | 13 W/m² | - |
| 1777814168 | 10° C | 99% | 1010.3 hPa | 0 mm | - | 10 W/m² | - |
| 1777813865 | 10° C | 99% | 1010.1 hPa | 0 mm | - | 8 W/m² | - |
| 1777813562 | 10° C | 99% | 1010.1 hPa | 0 mm | - | 5 W/m² | - |
| 1777813260 | 10° C | 99% | 1010 hPa | 0 mm | - | 4 W/m² | - |
| 1777812957 | 10° C | 99% | 1010.2 hPa | 0 mm | - | 2 W/m² | - |
| 1777812654 | 10.56° C | 99% | 1010.2 hPa | 0 mm | - | 1 W/m² | - |
| 1777812351 | 10° C | 99% | 1010 hPa | 0 mm | - | 1 W/m² | - |
| 1777812049 | 10° C | 99% | 1010 hPa | 0 mm | - | 0 W/m² | - |
| 1777811748 | 10.56° C | 99% | 1010.1 hPa | 0 mm | - | 0 W/m² | - |
| 1777811443 | 10.56° C | 99% | 1010.2 hPa | 0 mm | - | 0 W/m² | - |
| 1777811140 | 10.56° C | 99% | 1010 hPa | 0 mm | - | 0 W/m² | - |
| 1777810838 | 10° C | 99% | 1010.1 hPa | 0 mm | - | 0 W/m² | - |
| 1777810534 | 10.56° C | 99% | 1010.3 hPa | 0 mm | - | 0 W/m² | - |
| 1777810231 | 10.56° C | 99% | 1010.4 hPa | 0 mm | - | 0 W/m² | - |
| 1777809927 | 10.56° C | 99% | 1010.3 hPa | 0 mm | - | 0 W/m² | - |
| 1777809626 | 10.56° C | 98% | 1010.3 hPa | 0 mm | - | 0 W/m² | - |
* Rain latest hour (hover to see other rain measurements)
** Current wind speed in m/s (hover to see current wind gust speed)